Location: Brabourne
(51.1333°N, 1.0000°E)
Time: 22:42:39
(UTC+00:00)

Cosmos 1825 - Pass Details

Date: 20 June 2021
Orbit: 501 x 506 km, 82.5° (Epoch: 02 August)

Event Time Altitude Azimuth Distance (km) Brightness Sun altitude
Exits shadow 00:13:14 17° 132° (SE) 1,353 4.0 -15.4°
Maximum altitude 00:15:10 25° 90° (E) 1,060 3.8 -15.3°
Drops below altitude 10° 00:18:18 10° 34° (NE) 1,730 5.8 -15.3°
Sets 00:20:40 0° 21° (NNE) 2,620 7.3 -15.3°
